Wind_Speed
7 7 7 7 7 7 8 8 8 8 8 8 8 7 7 7 6 5 5 4 4 3 3 2 2 2 2 1 1 0 1 0 1 1 1 1 2 2 2 2 2 2 2 2 2 1 1 2 2
8 8 8 8 8 8 8 8 8 8 8 8 8 8 7 7 7 6 6 5 5 4 3 2 2 2 2 1 0 1 1 1 1 1 1 2 3 3 3 3 3 2 2 2 2 2 2 2 3
8 9 9 9 9 9 8 8 8 9 9 9 9 9 8 8 8 7 7 6 6 5 4 3 2 2 1 1 1 1 2 2 2 2 2 2 3 3 3 3 3 3 3 3 2 3 3 3 3
9 9 10 10 10 9 9 9 9 9 10 9 9 10 9 9 8 8 7 7 7 6 5 4 3 2 1 1 1 2 2 2 2 2 3 3 3 3 3 3 4 4 4 3 3 2 3 3 4
9 9 10 10 11 11 10 10 10 10 10 9 9 9 8 8 8 8 8 8 8 8 6 4 3 2 1 1 2 2 2 2 1 2 3 3 3 3 3 3 4 4 4 4 3 3 3 4 4
10 10 11 11 11 11 12 11 10 11 10 10 10 9 8 8 8 8 8 8 8 8 6 5 4 2 2 2 1 1 2 3 2 2 3 3 4 4 4 3 4 4 4 4 3 3 3 3 4
10 10 10 11 11 11 11 12 11 11 11 10 10 9 9 8 8 8 8 8 8 8 7 5 4 4 3 2 2 2 3 3 3 3 3 4 4 4 4 4 4 4 4 4 4 4 3 4 4
10 10 11 11 11 11 11 12 12 12 11 11 10 10 9 8 8 8 8 8 8 8 8 7 5 4 3 2 1 3 3 3 3 3 3 3 4 4 4 5 5 5 4 4 4 4 4 4 4
10 11 11 11 11 11 12 12 13 12 12 11 11 10 10 10 9 9 9 9 9 9 8 7 6 5 4 3 2 3 3 3 2 2 3 3 4 4 4 5 5 5 5 5 5 4 5 5 5
10 11 11 12 12 11 11 12 12 13 13 12 12 11 11 10 10 10 10 10 9 9 8 7 6 5 5 4 3 2 2 2 2 3 3 3 4 4 4 5 5 5 5 5 5 5 5 5 5
10 10 11 11 12 11 11 11 12 12 13 13 12 12 11 10 10 9 10 10 9 8 7 7 6 5 5 4 3 2 2 2 3 3 3 4 4 4 4 5 5 5 5 5 5 5 5 6 6
10 9 10 11 12 11 11 11 11 12 12 13 13 12 11 10 10 10 9 9 8 8 7 7 6 5 5 4 3 2 2 3 3 3 3 3 3 4 4 5 5 5 5 5 5 5 6 6 6
9 9 9 10 11 11 10 11 11 11 11 13 13 12 11 10 10 10 10 9 9 8 7 7 7 6 5 5 4 3 3 3 3 2 2 2 3 3 4 4 4 5 5 5 5 6 6 6 6
8 8 9 9 10 10 10 10 11 11 11 12 13 12 12 11 11 10 10 10 10 9 8 7 7 6 5 4 3 3 2 2 2 2 2 2 2 3 4 4 4 5 5 5 6 6 6 6 6
8 8 9 9 9 10 10 10 11 11 11 11 12 12 12 11 11 12 11 10 10 9 8 8 7 6 5 5 4 3 2 2 1 1 2 2 3 3 3 4 4 5 5 6 6 6 6 6 6
8 8 8 8 9 9 9 9 10 10 10 11 11 11 11 11 12 12 11 10 9 9 8 8 7 6 5 5 4 3 2 2 2 2 2 3 3 3 3 3 4 5 5 6 6 6 6 7 7
7 8 7 7 9 9 9 9 9 9 9 10 11 11 11 11 12 11 11 10 10 9 8 8 8 7 6 5 4 4 3 2 2 2 2 2 2 2 3 3 4 5 6 6 6 6 6 7 7
6 7 7 8 8 9 9 8 9 9 9 10 10 10 10 10 11 11 11 10 9 9 8 8 8 7 7 6 5 5 4 3 3 3 2 2 3 3 3 3 4 5 6 6 6 6 6 7 7
7 7 8 8 8 9 9 8 9 9 9 10 10 10 9 9 10 10 10 9 9 8 8 8 8 7 6 6 5 5 4 4 4 4 3 3 3 3 3 3 4 5 5 5 6 6 6 7 7
8 8 8 8 8 8 8 8 8 9 10 10 10 10 9 9 10 11 10 9 9 8 8 8 8 7 6 6 5 5 5 5 5 4 4 4 4 3 3 4 5 5 5 5 6 6 6 7 7
7 8 8 8 8 7 8 8 8 9 10 10 10 10 10 10 10 11 10 10 9 8 8 8 8 7 7 6 6 6 5 5 5 5 4 4 4 4 4 4 4 5 5 5 6 6 7 7 7
7 8 8 8 8 8 7 7 8 8 9 9 10 10 9 10 10 10 10 10 9 9 8 7 7 7 7 7 7 6 6 6 5 5 5 5 5 5 5 5 5 5 5 5 6 6 7 7 7
7 7 7 7 7 7 7 7 8 9 9 9 9 10 10 10 11 11 11 10 10 10 9 8 8 7 7 8 8 7 7 7 6 6 6 6 6 6 6 6 5 5 5 5 6 6 7 7 7
6 6 6 6 6 7 7 7 8 9 9 9 10 10 10 11 11 11 11 10 10 11 10 9 8 8 8 8 8 8 7 7 7 7 7 7 7 7 7 6 6 5 5 6 6 7 7 7 7
6 6 5 6 7 7 7 8 9 10 9 10 10 11 12 11 11 11 11 11 11 11 10 10 9 9 8 9 9 9 8 8 8 8 7 7 7 7 7 7 6 6 6 6 7 7 7 7 7
7 7 7 6 5 7 9 10 10 10 9 10 11 11 12 12 11 12 12 12 12 12 11 10 9 9 8 8 9 9 9 9 8 8 8 8 8 8 8 7 7 7 7 8 8 8 8 7 8
9 8 7 7 6 7 9 10 10 10 10 10 11 12 13 13 13 13 12 13 12 12 12 12 11 9 9 9 9 10 9 9 9 9 9 9 9 9 9 9 9 8 8 8 8 8 8 8 8
8 8 9 9 8 8 8 10 11 11 11 11 11 12 13 13 13 13 13 13 13 13 13 12 11 10 10 10 10 10 9 9 10 10 9 9 9 10 10 10 10 10 9 9 8 8 9 9 9
9 9 10 10 10 10 9 10 11 11 11 11 12 12 12 13 13 13 13 13 13 13 12 12 12 12 11 11 11 11 10 10 11 11 10 10 11 11 11 11 11 11 10 10 10 10 10 10 10
11 10 10 10 11 10 11 12 12 12 12 12 12 12 12 13 13 13 13 13 13 13 13 13 13 12 12 12 12 12 12 12 11 11 11 11 12 12 11 12 12 12 11 11 11 11 11 12 12
Wind_Direction
226 224 222 220 218 221 225 222 219 218 221 219 215 212 210 210 213 217 212 206 213 218 208 194 180 145 130 129 145 73 52 76 49 23 357 4 26 40 48 44 27 359 334 325 312 304 275 265 259
227 225 223 221 218 225 231 229 227 222 223 222 220 216 212 210 214 218 214 216 220 222 213 208 196 173 137 135 154 352 1 317 30 38 45 45 37 33 30 18 3 350 336 320 309 295 270 271 268
226 223 224 224 225 230 231 233 231 230 225 224 223 221 217 215 215 218 220 224 226 224 228 219 213 199 191 220 290 318 353 342 355 21 18 26 18 14 10 2 355 346 337 316 305 289 273 268 267
225 221 224 225 229 233 232 230 230 235 229 228 226 225 223 221 221 221 226 228 230 230 230 222 217 208 215 266 304 324 331 330 348 18 9 6 5 5 7 1 0 355 351 340 322 299 278 270 267
225 224 227 228 229 233 232 229 231 234 231 229 225 225 224 224 226 228 234 232 235 238 234 233 233 235 255 295 321 330 332 340 1 12 1 359 3 1 5 1 359 360 357 351 335 309 282 271 268
225 226 226 230 232 233 231 228 231 229 229 228 224 221 225 229 232 233 235 233 233 236 235 238 230 238 254 278 342 358 345 1 7 11 9 10 8 10 6 9 8 10 6 357 347 326 300 280 277
225 226 226 229 230 228 225 228 229 229 229 230 232 230 230 230 234 238 237 235 234 234 235 237 238 237 247 257 271 308 338 349 357 3 6 360 1 3 358 358 1 3 3 1 353 342 329 304 291
225 225 226 226 226 230 229 228 231 230 229 232 234 233 230 230 234 238 235 236 237 236 236 235 235 235 242 252 282 313 324 331 345 358 357 353 352 351 353 350 350 354 360 359 350 339 331 315 305
221 223 228 228 226 230 232 232 232 230 229 230 231 232 234 234 237 239 238 239 236 235 235 232 230 233 236 257 282 310 322 326 333 340 340 345 346 347 352 352 351 352 355 354 349 338 329 321 313
222 224 227 230 228 230 233 233 233 232 230 229 230 233 234 237 240 239 238 236 234 235 237 237 232 232 239 253 269 297 313 323 323 324 327 336 339 344 350 352 349 349 350 348 344 340 333 328 319
225 227 227 229 227 230 233 237 239 236 233 232 230 231 233 237 239 239 238 234 232 237 239 240 235 233 238 248 262 281 299 307 306 313 320 327 335 340 343 349 351 349 349 351 346 341 334 327 326
228 228 228 228 229 230 234 238 240 242 237 234 232 231 234 239 240 236 232 226 225 232 231 233 232 230 232 243 255 272 292 305 308 310 310 319 329 335 340 348 349 348 347 352 350 345 338 332 337
229 232 229 227 230 232 237 239 241 242 238 235 233 230 233 240 239 235 229 225 226 227 226 230 227 230 235 243 251 268 293 303 307 311 312 323 332 338 343 350 352 352 351 356 355 354 347 344 346
231 229 227 226 231 234 239 239 241 242 241 235 230 232 233 238 236 232 231 231 230 230 227 230 231 229 229 235 248 265 287 304 321 332 333 335 340 344 349 358 1 2 1 0 360 2 360 355 353
230 228 227 223 228 235 239 241 240 241 241 235 233 233 233 238 232 228 227 227 229 231 231 232 231 226 228 238 246 253 269 284 312 332 342 343 344 350 360 358 357 1 360 360 0 360 356 354 356
225 227 229 228 228 234 239 240 235 236 237 234 233 233 233 235 232 229 229 229 231 231 229 230 230 231 235 242 243 253 268 279 287 298 323 337 343 349 355 356 355 358 0 0 0 360 355 352 352
226 228 230 228 231 236 240 242 236 234 231 228 231 232 233 235 231 227 228 230 232 229 228 230 233 235 237 243 248 257 263 271 269 285 302 319 328 336 341 348 352 354 357 357 359 1 357 354 353
227 228 232 233 236 239 242 243 239 236 232 229 230 232 234 233 228 225 223 226 227 229 231 231 232 234 232 239 244 253 257 258 260 273 287 301 312 324 336 345 348 351 353 353 356 359 358 354 357
235 237 240 241 244 243 245 248 239 237 236 232 231 233 235 232 223 218 219 219 223 230 232 229 228 226 227 237 245 246 253 254 258 266 277 289 300 311 325 333 342 347 349 349 352 353 354 352 353
237 242 242 245 247 250 255 252 240 235 236 232 232 236 234 227 220 218 219 222 225 231 232 227 228 228 233 242 246 248 253 255 252 255 269 280 292 302 312 322 332 337 340 346 350 350 348 347 348
236 238 243 246 248 255 257 251 243 236 236 232 233 233 232 225 223 215 217 220 225 224 225 226 228 230 236 242 243 248 251 256 254 253 262 272 282 291 300 313 322 326 331 337 341 341 341 342 344
243 243 244 245 244 249 253 256 246 246 240 236 232 230 226 224 223 219 219 222 225 223 222 226 230 233 240 245 247 247 251 254 256 252 258 267 276 285 293 302 311 315 321 326 332 336 335 335 339
236 244 244 242 243 247 251 252 252 244 238 238 238 232 231 226 222 220 219 221 226 227 224 229 233 237 244 249 249 247 252 253 253 252 256 264 273 279 286 294 301 308 317 325 327 330 331 330 331
236 240 242 240 242 255 259 261 257 251 246 242 240 235 234 226 224 224 226 228 231 230 228 232 238 243 247 249 249 248 252 255 252 252 256 263 270 276 282 288 295 301 310 317 320 323 325 327 327
233 231 232 242 252 259 265 269 264 259 255 248 241 238 232 229 230 229 230 231 231 232 233 235 241 246 251 251 248 249 253 255 256 254 256 263 270 275 280 284 292 295 301 307 311 316 317 321 323
235 233 229 232 255 264 265 267 268 265 261 254 245 241 238 238 239 233 232 234 233 235 238 239 241 246 251 251 251 254 255 255 255 256 257 265 270 272 275 280 287 292 299 303 305 307 308 310 314
233 227 228 234 239 258 264 269 267 267 261 254 249 245 243 240 239 235 233 234 234 236 240 242 245 248 253 253 255 257 256 255 255 257 257 264 268 271 276 280 285 291 298 301 302 302 303 304 307
236 232 225 227 236 249 259 263 264 265 260 255 252 249 245 241 237 236 235 236 235 237 239 241 243 247 253 254 255 254 255 257 258 259 261 264 266 271 275 280 282 287 291 293 296 299 300 299 301
242 241 241 238 236 246 250 257 262 269 265 258 255 254 249 243 241 239 237 238 238 237 237 238 243 250 254 256 254 252 254 257 261 260 264 266 268 271 277 279 279 282 285 286 289 292 294 296 298
246 247 247 243 238 244 252 260 264 268 267 266 258 252 249 246 240 240 240 240 238 239 239 241 244 249 253 256 256 254 255 260 259 258 264 268 271 271 276 280 279 280 282 283 286 289 291 294 297
Height
5867 5868 5869 5871 5873 5874 5874 5875 5876 5877 5878 5879 5880 5881 5882 5883 5885 5888 5886 5886 5887 5887 5887 5888 5888 5888 5888 5888 5888 5889 5889 5888 5888 5888 5888 5888 5888 5888 5888 5888 5888 5887 5887 5887 5887 5887 5887 5887 5887
5866 5867 5869 5870 5871 5872 5874 5874 5875 5876 5877 5878 5879 5881 5882 5883 5884 5885 5885 5886 5887 5887 5887 5888 5888 5888 5888 5888 5889 5888 5889 5889 5888 5888 5888 5888 5888 5888 5888 5888 5887 5887 5887 5887 5886 5886 5886 5886 5887
5865 5866 5868 5869 5870 5871 5873 5873 5874 5875 5876 5877 5879 5880 5882 5883 5883 5884 5885 5885 5886 5887 5887 5887 5888 5888 5888 5889 5889 5889 5889 5889 5888 5888 5888 5888 5888 5888 5887 5887 5887 5886 5886 5886 5886 5885 5886 5886 5886
5864 5866 5867 5868 5868 5870 5871 5872 5873 5873 5875 5876 5878 5879 5880 5882 5882 5884 5884 5885 5886 5886 5887 5887 5888 5888 5889 5889 5889 5889 5889 5889 5889 5888 5888 5888 5888 5888 5887 5887 5886 5886 5885 5885 5885 5885 5885 5885 5885
5862 5864 5866 5866 5866 5868 5869 5871 5872 5873 5874 5875 5877 5878 5879 5881 5882 5883 5884 5885 5885 5886 5887 5887 5888 5888 5889 5889 5889 5889 5889 5889 5889 5889 5889 5888 5888 5888 5887 5886 5886 5885 5885 5885 5884 5884 5884 5884 5884
5861 5863 5864 5864 5865 5866 5868 5869 5870 5871 5873 5874 5876 5878 5879 5880 5881 5882 5883 5884 5885 5885 5886 5887 5887 5888 5888 5889 5889 5889 5889 5889 5889 5889 5889 5888 5888 5887 5887 5886 5886 5885 5885 5884 5884 5884 5883 5883 5883
5861 5861 5862 5863 5864 5865 5867 5868 5869 5870 5872 5874 5875 5877 5878 5879 5880 5881 5882 5883 5884 5884 5885 5886 5887 5888 5888 5888 5889 5889 5889 5889 5889 5889 5889 5888 5888 5888 5887 5886 5886 5885 5884 5884 5884 5883 5883 5883 5883
5858 5860 5860 5861 5863 5864 5865 5866 5867 5869 5871 5873 5874 5876 5877 5878 5879 5880 5881 5882 5883 5884 5885 5886 5887 5887 5888 5888 5888 5888 5889 5889 5889 5889 5889 5888 5888 5887 5887 5886 5886 5885 5884 5884 5883 5883 5882 5882 5882
5856 5859 5859 5860 5861 5862 5863 5865 5866 5868 5869 5871 5873 5874 5876 5877 5878 5879 5880 5881 5882 5883 5884 5885 5886 5887 5887 5888 5888 5888 5888 5888 5888 5889 5888 5888 5888 5887 5887 5886 5886 5885 5884 5883 5883 5882 5882 5881 5881
5855 5857 5857 5859 5860 5860 5862 5864 5865 5866 5868 5870 5872 5873 5874 5876 5877 5878 5879 5880 5882 5882 5883 5884 5885 5886 5887 5887 5887 5888 5888 5888 5888 5888 5888 5888 5888 5887 5887 5886 5885 5885 5884 5883 5883 5882 5881 5881 5880
5853 5855 5856 5857 5858 5859 5861 5862 5863 5865 5867 5868 5870 5872 5873 5874 5876 5877 5878 5879 5880 5882 5882 5883 5884 5885 5886 5887 5887 5887 5888 5888 5888 5888 5888 5888 5887 5887 5886 5886 5885 5884 5884 5883 5882 5881 5881 5880 5880
5852 5853 5854 5856 5857 5858 5859 5861 5862 5863 5865 5867 5868 5870 5871 5873 5875 5876 5877 5878 5879 5881 5882 5883 5884 5884 5885 5886 5886 5887 5887 5887 5887 5887 5887 5887 5887 5887 5886 5886 5885 5884 5883 5883 5882 5881 5880 5879 5879
5851 5852 5853 5854 5855 5857 5858 5859 5861 5862 5863 5865 5867 5869 5870 5872 5873 5875 5876 5877 5878 5880 5881 5882 5883 5884 5885 5885 5886 5886 5887 5887 5887 5887 5887 5887 5887 5886 5886 5885 5884 5884 5883 5882 5881 5880 5880 5879 5878
5850 5851 5852 5853 5855 5856 5857 5858 5860 5861 5862 5863 5865 5867 5869 5870 5872 5873 5875 5876 5877 5879 5880 5881 5882 5883 5884 5885 5885 5886 5886 5886 5886 5886 5886 5886 5886 5886 5885 5885 5884 5884 5883 5882 5881 5880 5880 5879 5878
5849 5850 5851 5852 5854 5855 5856 5858 5858 5859 5860 5862 5864 5865 5867 5868 5870 5872 5874 5875 5877 5878 5879 5880 5881 5882 5883 5884 5884 5885 5886 5886 5886 5886 5886 5886 5886 5885 5885 5885 5884 5884 5883 5882 5881 5880 5879 5878 5878
5848 5849 5850 5851 5853 5854 5857 5857 5857 5858 5859 5861 5862 5864 5866 5867 5869 5871 5872 5874 5875 5877 5878 5879 5881 5882 5882 5883 5884 5884 5885 5885 5885 5885 5886 5886 5886 5885 5885 5885 5884 5883 5882 5882 5881 5880 5879 5878 5877
5847 5848 5849 5851 5851 5853 5855 5855 5856 5856 5858 5859 5861 5863 5864 5866 5867 5869 5871 5873 5874 5876 5877 5878 5880 5881 5882 5882 5883 5884 5884 5885 5885 5885 5885 5886 5885 5885 5885 5885 5884 5883 5882 5881 5881 5880 5879 5878 5877
5847 5847 5848 5850 5850 5852 5853 5853 5854 5855 5857 5858 5860 5861 5863 5864 5866 5868 5869 5871 5873 5875 5876 5877 5878 5880 5881 5882 5883 5883 5884 5884 5885 5885 5885 5885 5885 5885 5884 5884 5884 5883 5882 5881 5881 5880 5879 5878 5877
5846 5847 5848 5849 5850 5850 5851 5852 5853 5854 5855 5857 5858 5860 5861 5863 5864 5866 5868 5870 5872 5874 5875 5876 5877 5879 5880 5881 5882 5882 5883 5883 5884 5884 5885 5885 5885 5884 5884 5884 5883 5883 5882 5881 5880 5880 5879 5878 5877
5845 5846 5847 5848 5848 5849 5850 5851 5852 5853 5854 5855 5857 5858 5860 5861 5863 5865 5867 5869 5871 5872 5873 5875 5876 5877 5878 5880 5881 5881 5882 5882 5883 5884 5884 5884 5884 5884 5884 5883 5883 5882 5882 5881 5880 5880 5879 5878 5877
5844 5845 5846 5847 5848 5848 5849 5850 5851 5851 5853 5854 5855 5857 5858 5860 5862 5864 5866 5868 5870 5871 5872 5874 5875 5876 5877 5878 5880 5880 5881 5881 5882 5883 5883 5883 5883 5883 5883 5883 5882 5882 5881 5881 5880 5879 5878 5877 5877
5843 5844 5845 5846 5847 5847 5849 5849 5849 5850 5851 5853 5854 5855 5857 5859 5861 5863 5865 5867 5868 5870 5871 5873 5874 5875 5876 5877 5878 5879 5880 5880 5881 5882 5882 5882 5882 5882 5882 5882 5882 5882 5881 5880 5880 5879 5878 5877 5876
5842 5843 5844 5845 5845 5846 5847 5848 5849 5849 5850 5851 5853 5854 5856 5858 5859 5861 5863 5865 5867 5868 5870 5871 5873 5874 5875 5875 5876 5877 5878 5879 5880 5880 5881 5881 5881 5881 5881 5881 5881 5881 5880 5880 5879 5878 5877 5876 5876
5841 5842 5843 5843 5844 5846 5846 5847 5848 5847 5849 5850 5852 5853 5854 5856 5858 5860 5861 5863 5865 5867 5868 5870 5871 5872 5873 5874 5875 5876 5876 5877 5878 5878 5879 5880 5880 5880 5880 5880 5880 5880 5879 5879 5878 5877 5877 5876 5875
5840 5842 5843 5843 5844 5845 5845 5846 5847 5846 5847 5849 5850 5851 5852 5854 5856 5858 5859 5861 5863 5865 5866 5867 5869 5870 5871 5872 5873 5874 5875 5875 5876 5877 5877 5878 5878 5879 5879 5879 5879 5878 5878 5877 5877 5876 5876 5875 5874
5839 5841 5842 5843 5844 5844 5844 5844 5845 5845 5846 5847 5848 5849 5851 5852 5853 5855 5857 5859 5861 5863 5864 5865 5867 5868 5869 5869 5871 5872 5872 5873 5874 5875 5875 5876 5876 5877 5877 5877 5877 5877 5876 5876 5876 5875 5874 5874 5873
5838 5838 5840 5841 5842 5843 5843 5843 5843 5843 5844 5845 5846 5847 5848 5850 5851 5853 5855 5857 5858 5860 5862 5863 5864 5865 5866 5867 5868 5869 5870 5871 5872 5873 5873 5874 5874 5875 5875 5875 5875 5875 5874 5874 5874 5873 5873 5872 5872
5837 5837 5838 5839 5840 5841 5842 5841 5841 5841 5842 5843 5844 5845 5846 5848 5849 5851 5852 5854 5856 5857 5859 5861 5862 5863 5864 5865 5866 5867 5868 5869 5870 5870 5871 5872 5872 5872 5872 5873 5873 5872 5872 5872 5872 5871 5871 5870 5870
5835 5836 5836 5837 5838 5839 5839 5841 5840 5840 5840 5841 5842 5843 5844 5845 5847 5848 5850 5851 5853 5855 5856 5858 5859 5861 5862 5863 5864 5864 5865 5866 5867 5868 5868 5869 5869 5870 5870 5870 5870 5870 5870 5870 5869 5869 5869 5868 5867
5832 5833 5834 5835 5836 5836 5837 5840 5837 5837 5838 5839 5839 5840 5841 5843 5844 5846 5847 5849 5850 5852 5853 5855 5856 5858 5859 5860 5861 5862 5863 5863 5864 5865 5866 5866 5866 5867 5867 5867 5867 5867 5867 5867 5867 5866 5866 5865 5865